Location: Albany
(35.0170°S, 117.8920°E)
Time: 17:35:27
(UTC+08:00)

Explorer 11/Cluster Stage 4 - Pass Details

Date: 01 February 2021
Orbit: 467 x 1257 km, 28.8° (Epoch: 02 March)

Event Time Altitude Azimuth Distance (km) Brightness Sun altitude
Rises 09:03:11 0° 272° (W) 3,928 9.7 42.4°
Reaches altitude 10° 09:06:24 10° 279° (W) 2,850 9.1 43.1°
Maximum altitude 09:12:38 37° 343° (NNW) 1,368 8.2 44.4°
Drops below altitude 10° 09:17:45 10° 49° (NE) 2,317 9.8 45.4°
Sets 09:20:07 0° 57° (ENE) 3,117 10.3 45.9°
